#timestamp,LO_Frequency,Hit 
1601384415.6,286046999.6,N
1601384435.5,286046999.0,N
1601384455.3,286046999.5,N
1601384475.1,286046996.9,N
1601384495.9,286046999.1,N
1601384515.7,286046997.8,N
1601384535.5,286046997.6,N
1601384555.4,286046997.9,N
1601384575.2,286046995.3,P
1601384595.0,286046999.6,N
1601384595.9,286046999.6,N
1601384615.8,286046999.0,N
1601384635.6,286046999.6,N
1601384655.4,286046998.9,N
1601384675.3,286046997.5,N
1601384695.1,286046996.7,N
1601384696.0,286046996.7,N
1601384715.8,286046997.8,N
1601384735.7,286046997.9,N
1601384755.5,286046998.0,N
1601384775.3,286046996.7,N
1601384795.2,286046997.3,N
1601384815.9,286046995.1,P
1601384835.7,286046999.5,N
1601384855.6,286046998.3,N
1601384875.4,286047000.8,N
1601384895.2,286046998.6,N
1601384915.1,286047001.2,N
1601384916.0,286047001.2,N
1601384935.8,286046999.2,N
1601384955.6,286046996.6,N
1601384975.5,286046998.7,N
1601384995.3,286046999.4,N
1601385015.1,286046998.8,N
1601385035.9,286046999.6,N
1601385055.7,286046996.5,N
1601385075.5,286046998.7,N
1601385095.3,286046999.0,N
1601385115.2,286046999.1,N
1601385135.0,286046998.4,N
1601385135.9,286046998.4,N
1601385155.7,286046996.5,N
1601385175.6,286046998.5,N
1601385195.4,286046999.1,N
1601385215.2,286046998.7,N
1601385235.1,286046996.9,N
1601385236.0,286046996.9,N
1601385255.8,286046996.6,N
1601385275.6,286046997.2,N
1601385295.5,286046999.0,N
1601385315.3,286046997.0,N
1601385335.1,286046997.8,N
1601385355.9,286046997.7,N
1601385375.7,286046997.8,N
1601385395.5,286046997.3,N
1601385415.4,286046997.9,N
1601385435.2,286046997.2,N
1601385455.0,286046997.5,N
1601385455.9,286046997.5,N
1601385475.8,286046995.5,P
1601385495.6,286046999.0,N
1601385515.4,286046996.8,N
1601385535.3,286046996.9,N
1601385555.1,286046997.0,N
1601385575.8,286046998.9,N
1601385595.7,286046996.9,N
1601385615.5,286046996.9,N
1601385635.3,286046997.3,N
1601385655.2,286046999.1,N
1601385675.9,286046997.3,N
1601385695.7,286046996.8,P
1601385715.6,286047000.9,N
1601385735.4,286047000.4,N
1601385755.2,286047000.5,N
1601385775.1,286047001.0,N
1601385776.0,286047001.0,N
1601385795.8,286047001.2,N
1601385815.6,286046998.6,N
1601385835.5,286046998.4,N
1601385855.3,286047000.4,N
1601385875.1,286046999.4,N
1601385895.9,286047000.8,N
1601385915.7,286046998.2,N
1601385935.5,286046999.0,N
1601385955.4,286046998.2,N
1601385975.2,286046998.4,N
1601385995.0,286047001.1,N
1601385995.9,286047001.1,N
1601386015.8,286046998.7,N
1601386035.6,286047000.7,N
1601386055.4,286046998.3,N
1601386075.3,286046998.7,N
1601386095.1,286046999.0,N
1601386096.0,286046999.0,N
1601386115.8,286046999.3,N
1601386135.7,286046998.8,N
1601386155.5,286046999.1,N
1601386175.3,286046999.2,N
1601386195.2,286046999.2,N
1601386215.9,286046999.5,N
1601386235.7,286046996.8,N
1601386255.5,286046999.6,N
1601386275.4,286046998.0,N
1601386295.2,286046997.5,N
1601386315.1,286046995.3,P
1601386316.0,286046995.3,N
1601386335.8,286046997.5,N
1601386355.6,286046997.1,N
1601386375.5,286046996.7,N
1601386395.3,286046999.1,N
1601386415.1,286046996.5,N
1601386435.9,286046999.1,N
1601386455.7,286046998.4,N
1601386475.5,286046999.3,N
1601386495.3,286046997.2,N
1601386515.2,286046999.6,N
1601386535.0,286046998.9,N
1601386535.9,286046998.9,N
1601386555.7,286046998.9,N
1601386575.6,286046997.2,N
1601386595.4,286046999.2,N
1601386615.2,286046997.3,N
1601386635.1,286046999.3,N
1601386636.0,286046999.3,N
1601386655.8,286046999.2,N
1601386675.6,286046999.5,N
1601386695.5,286046996.7,N
1601386715.3,286046996.8,N
1601386735.1,286046996.5,N
1601386755.9,286046996.6,N
1601386775.7,286046998.7,N
1601386795.5,286046999.2,N
1601386815.4,286046996.5,N
1601386835.2,286046999.6,N
1601386855.0,286046999.0,N
1601386855.9,286046999.0,N
1601386875.8,286046998.1,N
1601386895.6,286046998.9,N
1601386915.4,286047001.2,N
1601386935.3,286047000.8,N
1601386955.1,286047001.1,N
1601386956.0,286047001.1,N
1601386975.8,286047000.0,N
1601386995.7,286047001.2,N
1601387015.5,286047000.0,N
1601387035.3,286047001.2,N
1601387055.2,286046999.8,N
1601387075.9,286047002.4,N
1601387095.7,286047000.1,N
1601387115.6,286047002.5,N
1601387135.4,286047002.2,N
1601387155.2,286047002.2,N
1601387175.0,286047001.9,N
1601387176.0,286047001.9,N
1601387195.8,286046999.9,N
1601387215.6,286047002.7,N
1601387235.4,286047002.1,N
1601387255.3,286047002.4,N
1601387275.1,286047000.2,N
1601387295.8,286047002.1,N
1601387315.7,286047002.1,N
1601387335.5,286047002.2,N
1601387355.3,286047001.9,N
1601387375.2,286047003.8,N
1601387395.0,286047001.7,N
1601387395.9,286047001.7,N
1601387415.7,286047001.4,N
1601387435.6,286047004.4,P
1601387455.4,286047002.7,N
1601387475.2,286046999.9,N
1601387495.1,286047002.1,N
1601387496.0,286047002.1,N
1601387515.8,286047002.1,N
1601387535.6,286047001.9,N
1601387555.5,286047004.3,P
1601387575.3,286047000.4,N
1601387595.2,286047000.6,N
1601387615.9,286046998.6,N
1601387635.7,286046998.2,N
1601387655.5,286047001.1,N
1601387675.4,286047000.9,N
1601387695.2,286047001.2,N
1601387715.0,286047000.8,N
1601387715.9,286047000.8,N
1601387735.8,286046998.8,N
1601387755.6,286046999.0,N
1601387775.4,286047000.8,N
1601387795.3,286046998.6,N
1601387815.1,286046998.5,N
1601387835.8,286046999.3,N
1601387855.7,286047000.9,N
1601387875.5,286046998.1,N
1601387895.3,286046998.5,N
1601387915.2,286046998.8,N
1601387935.9,286047000.7,N
1601387955.7,286047001.1,N
1601387975.6,286047001.1,N
1601387995.4,286047001.1,N
